Satellite: DTUSAT-2
Catalog number: 40030
Epoch time: 15015.69992882
Element set: 601
Inclination: 097.9648 deg
RA of node: 275.5490 deg
Eccentricity: 0.0011957
Arg of perigee: 323.6214 deg
Mean anomaly: 036.4193 deg
Mean motion: 14.85978711 rev/day
Decay rate: 3.412e-05 rev/day^2
Epoch rev: 3113
Checksum: 304
Satellite: ANTELSAT
Catalog number: 40034
Epoch time: 15015.68551969
Element set: 618
Inclination: 097.9605 deg
RA of node: 270.9833 deg
Eccentricity: 0.0059596
Arg of perigee: 248.0568 deg
Mean anomaly: 111.4294 deg
Mean motion: 14.72113933 rev/day
Decay rate: 2.751e-05 rev/day^2
Epoch rev: 3085
Checksum: 317
/EX
SB KEPS @ AMSAT $ORB15015.W
Orbital Elements 15015.WEATHER
HR AMSAT ORBITAL ELEMENTS FOR WEATHER SATELLITES
FROM WA5QGD FORT WORTH,TX January 15, 2015
BID: ORB15015.W
TO ALL RADIO AMATEURS BT
Satellite: MET-2/21
Catalog number: 22782
Epoch time: 15014.93164126
Element set: 275
Inclination: 082.5494 deg
RA of node: 005.2823 deg
Eccentricity: 0.0022869
Arg of perigee: 034.5009 deg
Mean anomaly: 025.2932 deg
Mean motion: 13.83757226 rev/day
Decay rate: 3.8e-07 rev/day^2
Epoch rev: 7940
Checksum: 292
Satellite: OKEAN-4
Catalog number: 23317
Epoch time: 15015.55502448
Element set: 760
Inclination: 082.5360 deg
RA of node: 228.7363 deg
Eccentricity: 0.0021650
Arg of perigee: 114.6639 deg
Mean anomaly: 304.3729 deg
Mean motion: 14.86220701 rev/day
Decay rate: 1.250e-05 rev/day^2
Epoch rev: 9464
Checksum: 276
Satellite: NOAA-14
Catalog number: 23455
Epoch time: 15015.62766016
Element set: 53
Inclination: 098.7640 deg
RA of node: 100.1568 deg
Eccentricity: 0.0010086
Arg of perigee: 148.7861 deg
Mean anomaly: 211.4386 deg
Mean motion: 14.14015691 rev/day
Decay rate: -6.1e-07 rev/day^2
Epoch rev: 3397
Checksum: 281
Satellite: NOAA-15
Catalog number: 25338
Epoch time: 15015.85298315
Element set: 493
Inclination: 098.7656 deg
RA of node: 014.4523 deg
Eccentricity: 0.0009833
Arg of perigee: 250.5925 deg
Mean anomaly: 109.4681 deg
Mean motion: 14.25549527 rev/day
Decay rate: 3.21e-06 rev/day^2
Epoch rev: 86734
Checksum: 324
Satellite: RESURS
Catalog number: 25394
Epoch time: 15015.51257897
Element set: 854
Inclination: 098.4452 deg
RA of node: 336.2763 deg
Eccentricity: 0.0001658
Arg of perigee: 045.1199 deg
Mean anomaly: 063.3164 deg
Mean motion: 14.24435356 rev/day
Decay rate: 3.8e-07 rev/day^2
Epoch rev: 85854
Checksum: 318
Satellite: FENGYUN1
Catalog number: 25730
Epoch time: 15015.53729947
Element set: 343
Inclination: 098.9308 deg
RA of node: 340.6128 deg
Eccentricity: 0.0018751
Arg of perigee: 230.0954 deg
Mean anomaly: 255.0191 deg
Mean motion: 14.12888010 rev/day
Decay rate: 2.509e-05 rev/day^2
Epoch rev: 80749
Checksum: 300
Satellite: OKEAN-0
Catalog number: 25860
Epoch time: 15015.52030094
Element set: 467
Inclination: 098.0742 deg
RA of node: 343.5358 deg
Eccentricity: 0.0001966
Arg of perigee: 101.2741 deg
Mean anomaly: 031.7002 deg
Mean motion: 14.75743601 rev/day
Decay rate: 8.66e-06 rev/day^2
Epoch rev: 83346
Checksum: 277
Satellite: NOAA-16
Catalog number: 26536
Epoch time: 15015.50684226
Element set: 990
Inclination: 098.9629 deg
RA of node: 081.4924 deg
Eccentricity: 0.0009573
Arg of perigee: 306.1835 deg
Mean anomaly: 053.8451 deg
Mean motion: 14.13069242 rev/day
Decay rate: 1.50e-06 rev/day^2
Epoch rev: 73809
Checksum: 314
Satellite: NOAA-17
Catalog number: 27453
Epoch time: 15015.48616749
Element set: 884
Inclination: 098.3276 deg
RA of node: 009.1548 deg
Eccentricity: 0.0010592
Arg of perigee: 270.0370 deg
Mean anomaly: 089.9597 deg
Mean motion: 14.24844007 rev/day
Decay rate: 7.1e-07 rev/day^2
Epoch rev: 65291
Checksum: 327
Satellite: NOAA-18
Catalog number: 28654
Epoch time: 15015.53894615
Element set: 405
Inclination: 099.1720 deg
RA of node: 004.5633 deg
Eccentricity: 0.0014655
Arg of perigee: 032.2854 deg
Mean anomaly: 073.8716 deg
Mean motion: 14.12134717 rev/day
Decay rate: 1.81e-06 rev/day^2
Epoch rev: 49753
Checksum: 301
Satellite: NOAA-19
Catalog number: 33591
Epoch time: 15015.54556132
Element set: 536
Inclination: 098.9725 deg
RA of node: 325.2192 deg
Eccentricity: 0.0013230
Arg of perigee: 238.1153 deg
Mean anomaly: 244.1365 deg
Mean motion: 14.11855315 rev/day
Decay rate: 2.31e-06 rev/day^2
Epoch rev: 30595
Checksum: 281
/EX
SB KEPS @ AMSAT $ORB15015.M
Orbital Elements 15015.MISC
HR AMSAT ORBITAL ELEMENTS FOR MANNED AND MISCELLANEOUS SATELLITES
FROM WA5QGD FORT WORTH,TX January 15, 2015
BID: ORB15015.M
TO ALL RADIO AMATEURS BT
Satellite: HUBBLE
Catalog number: 20580
Epoch time: 15015.54251277
Element set: 200
Inclination: 028.4713 deg
RA of node: 080.1295 deg
Eccentricity: 0.0003253
Arg of perigee: 043.9482 deg
Mean anomaly: 093.8701 deg
Mean motion: 15.06634062 rev/day
Decay rate: 3.266e-05 rev/day^2
Epoch rev: 15676
Checksum: 266
Satellite: ISS
Catalog number: 25544
Epoch time: 15015.74068791
Element set: 732
Inclination: 051.6470 deg
RA of node: 125.0563 deg
Eccentricity: 0.0005905
Arg of perigee: 257.6610 deg
Mean anomaly: 257.1002 deg
Mean motion: 15.53331906 rev/day
Decay rate: 1.7536e-04 rev/day^2
Epoch rev: 92431
Checksum: 278
Satellite: CO-58
Catalog number: 28895
Epoch time: 15015.01929286
Element set: 969
Inclination: 097.8215 deg
RA of node: 210.8043 deg
Eccentricity: 0.0018218
Arg of perigee: 064.2313 deg
Mean anomaly: 296.0767 deg
Mean motion: 14.62424101 rev/day
Decay rate: 9.67e-06 rev/day^2
Epoch rev: 49120
Checksum: 317
Satellite: FALCON
Catalog number: 30776
Epoch time: 15015.09332788
Element set: 53
Inclination: 035.4272 deg
RA of node: 238.2904 deg
Eccentricity: 0.0003307
Arg of perigee: 346.5244 deg
Mean anomaly: 148.6131 deg
Mean motion: 15.20698051 rev/day
Decay rate: 1.3599e-04 rev/day^2
Epoch rev: 43295
Checksum: 293
Satellite: MAST
Catalog number: 31126
Epoch time: 15014.87087999
Element set: 251
Inclination: 097.9414 deg
RA of node: 350.0740 deg
Eccentricity: 0.0092402
Arg of perigee: 054.7425 deg
Mean anomaly: 335.8581 deg
Mean motion: 14.55734678 rev/day
Decay rate: 1.091e-05 rev/day^2
Epoch rev: 41118
Checksum: 303
Satellite: CAPE1
Catalog number: 31130
Epoch time: 15014.85909228
Element set: 257
Inclination: 097.9630 deg
RA of node: 347.0081 deg
Eccentricity: 0.0099283
Arg of perigee: 073.6077 deg
Mean anomaly: 287.6008 deg
Mean motion: 14.55057998 rev/day
Decay rate: 1.352e-05 rev/day^2
Epoch rev: 41058
Checksum: 316
Satellite: COMPASS
Catalog number: 32787
Epoch time: 15015.44734593
Element set: 153
Inclination: 097.6743 deg
RA of node: 067.7537 deg
Eccentricity: 0.0013209
Arg of perigee: 194.4237 deg
Mean anomaly: 165.6605 deg
Mean motion: 14.89569129 rev/day
Decay rate: 4.261e-05 rev/day^2
Epoch rev: 36376
Checksum: 332
Satellite: AAUSAT2
Catalog number: 32788
Epoch time: 15015.13878715
Element set: 140
Inclination: 097.6754 deg
RA of node: 068.7222 deg
Eccentricity: 0.0012713
Arg of perigee: 192.2948 deg
Mean anomaly: 167.7962 deg
Mean motion: 14.90466748 rev/day
Decay rate: 5.639e-05 rev/day^2
Epoch rev: 36379
Checksum: 347
Satellite: DO-64
Catalog number: 32789
Epoch time: 15015.07849215
Element set: 193
Inclination: 097.6965 deg
RA of node: 077.4503 deg
Eccentricity: 0.0011455
Arg of perigee: 172.2000 deg
Mean anomaly: 254.5233 deg
Mean motion: 14.97089674 rev/day
Decay rate: 9.844e-05 rev/day^2
Epoch rev: 36415
Checksum: 328
Satellite: CO-66
Catalog number: 32791
Epoch time: 15015.41249647
Element set: 136
Inclination: 097.6742 deg
RA of node: 065.9972 deg
Eccentricity: 0.0013754
Arg of perigee: 198.8503 deg
Mean anomaly: 161.2206 deg
Mean motion: 14.87878946 rev/day
Decay rate: 4.066e-05 rev/day^2
Epoch rev: 36359
Checksum: 351
Satellite: RS-30
Catalog number: 32953
Epoch time: 15015.71487833
Element set: 646
Inclination: 082.5024 deg
RA of node: 069.0674 deg
Eccentricity: 0.0019420
Arg of perigee: 055.2013 deg
Mean anomaly: 305.0888 deg
Mean motion: 12.43055053 rev/day
Decay rate: 1.0e-07 rev/day^2
Epoch rev: 30166
Checksum: 267
Satellite: METEOR-M
Catalog number: 35865
Epoch time: 15015.66129817
Element set: 254
Inclination: 098.5209 deg
RA of node: 061.3128 deg
Eccentricity: 0.0002130
Arg of perigee: 186.2655 deg
Mean anomaly: 173.8503 deg
Mean motion: 14.21980138 rev/day
Decay rate: 1.33e-06 rev/day^2
Epoch rev: 27653
Checksum: 287
Satellite: RS-38
Catalog number: 35869
Epoch time: 15015.72390078
Element set: 162
Inclination: 098.5149 deg
RA of node: 061.0783 deg
Eccentricity: 0.0004319
Arg of perigee: 186.4959 deg
Mean anomaly: 173.6160 deg
Mean motion: 14.22264277 rev/day
Decay rate: 1.18e-06 rev/day^2
Epoch rev: 27658
Checksum: 328
Satellite: JUGNU
Catalog number: 37839
Epoch time: 15015.41967598
Element set: 773
Inclination: 019.9631 deg
RA of node: 048.5738 deg
Eccentricity: 0.0018869
Arg of perigee: 162.0891 deg
Mean anomaly: 321.1305 deg
Mean motion: 14.12407230 rev/day
Decay rate: 4.52e-06 rev/day^2
Epoch rev: 16859
Checksum: 319
Satellite: SRMSAT
Catalog number: 37841
Epoch time: 15015.42892166
Element set: 778
Inclination: 019.9732 deg
RA of node: 072.1130 deg
Eccentricity: 0.0012069
Arg of perigee: 093.8139 deg
Mean anomaly: 024.8135 deg
Mean motion: 14.10431014 rev/day
Decay rate: 4.26e-06 rev/day^2
Epoch rev: 16835
Checksum: 277
Satellite: RAX-2
Catalog number: 37853
Epoch time: 15014.88888304
Element set: 15
Inclination: 101.7044 deg
RA of node: 150.9982 deg
Eccentricity: 0.0204458
Arg of perigee: 162.9488 deg
Mean anomaly: 354.3950 deg
Mean motion: 14.93378110 rev/day
Decay rate: 1.5261e-04 rev/day^2
Epoch rev: 17420
Checksum: 307
Satellite: AUBIESAT
Catalog number: 37854
Epoch time: 15014.92527010
Element set: 14
Inclination: 101.7088 deg
RA of node: 153.7503 deg
Eccentricity: 0.0200743
Arg of perigee: 158.9434 deg
Mean anomaly: 323.5419 deg
Mean motion: 14.95195839 rev/day
Decay rate: 1.7079e-04 rev/day^2
Epoch rev: 17429
Checksum: 303
